Find Starlink 5406

NORAD ID: 54860 Int'l Des: 2022-177 Owner: SPXS Country: US Constellation: starlink operational
LEOCIRCULAR

Live Position

Loading 3D Globe...

About Starlink 5406

Description loading...

Upcoming Passes

Passes for default location (London). Set your location on the main map for personalized predictions.

Altitude History

Loading altitude history...

Two-Line Element Set

1 54860U 22177AS 26104.86662838 .00003932 00000-0 15614-3 0 9999
2 54860 43.0035 277.2513 0001165 274.0641 86.0077 15.26752348182624
Epoch: Apr 14, 2026 • Age: 12 hours

Current Status

Altitude 497.9 km
Velocity 7.62 km/s
Sub-Earth Point -42.66°S, 163.88°W
Launch Date Dec 28, 2022
Age 3.2 years
Type internet

Technical Details

Classification Payload
Mass 305.00 kg
Dry Mass 290.00 kg
Total Mass 305.00 kg
Length 0.20 m
Diameter 2.80 m
Span 9.00 m
Shape Box + pan
Manufacturer SPXS
Bus Type Starlink
Phase Status In Orbit
Owner/State SPXS/US

Most Searched